K4DBC Weather Reports


time (UTC)temp
C
wind
direction
speed
KPH
gust
KPH
rain 1hr
cm
rain 24hr
cm
rain mn
cm
humidity
%
barometer
mb
20260906132008 26 95 0.0 3.2 0.00 0.00 0.00 96 1012.0
20260906131513 26 171 0.0 3.2 0.00 0.00 0.00 96 1012.2
20260906131007 26 263 0.0 4.8 0.00 0.00 0.00 96 1012.2
20260906130514 25 336 1.6 6.4 0.00 0.00 0.00 96 1012.3
20260906130022 25 241 3.2 6.4 0.00 0.00 0.00 96 1012.4
20260906125511 25 158 1.6 4.8 0.00 0.00 0.00 96 1012.5
20260906125016 25 245 0.0 4.8 0.00 0.00 0.00 96 1012.5
20260906124539 25 331 1.6 4.8 0.00 0.00 0.00 96 1012.5
20260906124014 25 221 0.0 3.2 0.00 0.00 0.00 96 1012.5
20260906123505 24 304 0.0 3.2 0.00 0.00 0.00 96 1012.4
20260906123005 23 265 0.0 3.2 0.00 0.00 0.00 96 1012.4
20260906122506 23 265 0.0 3.2 0.00 0.00 0.00 96 1012.3
20260906122009 23 240 0.0 3.2 0.00 0.00 0.00 95 1012.3
20260906121516 23 235 0.0 3.2 0.00 0.00 0.00 95 1012.2
20260906121012 23 235 0.0 3.2 0.00 0.00 0.00 95 1012.1
20260906120508 22 235 0.0 0.0 0.00 0.00 0.00 95 1012.1
20260906120016 22 235 0.0 0.0 0.00 0.00 0.00 95 1012.0
20260906115514 22 235 0.0 0.0 0.00 0.00 0.00 95 1011.7
20260906115014 22 235 0.0 0.0 0.00 0.00 0.00 95 1011.7
20260906114524 22 235 0.0 0.0 0.00 0.00 0.00 95 1011.9
20260906114016 22 235 0.0 0.0 0.00 0.00 0.00 95 1011.9
20260906113514 22 235 0.0 0.0 0.00 0.00 0.00 95 1011.7
20260906113029 22 235 0.0 3.2 0.00 0.00 0.00 95 1011.6
20260906112507 22 235 0.0 3.2 0.00 0.00 0.00 95 1011.7
20260906112007 22 235 0.0 3.2 0.00 0.00 0.00 94 1011.6
20260906111519 22 235 0.0 1.6 0.00 0.00 0.00 94 1011.5
20260906111008 22 235 0.0 0.0 0.00 0.00 0.00 94 1011.2
20260906110513 22 235 0.0 3.2 0.00 0.00 0.00 94 1011.2
20260906110016 22 235 0.0 3.2 0.00 0.00 0.00 94 1011.1
20260906105510 22 235 0.0 0.0 0.00 0.00 0.00 94 1011.2
20260906105011 22 235 0.0 0.0 0.00 0.00 0.00 94 1011.3
20260906104518 22 235 0.0 0.0 0.00 0.00 0.00 94 1011.0
20260906104012 22 235 0.0 0.0 0.00 0.00 0.00 94 1011.0
20260906103513 22 235 0.0 0.0 0.00 0.00 0.00 94 1011.2
20260906103026 22 235 0.0 0.0 0.00 0.00 0.00 94 1011.2
20260906102520 22 235 0.0 0.0 0.00 0.00 0.00 94 1011.1
20260906102017 22 235 0.0 0.0 0.00 0.00 0.00 94 1011.0
20260906101508 22 235 0.0 0.0 0.00 0.00 0.00 94 1011.1
20260906101008 22 235 0.0 3.2 0.00 0.00 0.00 94 1011.2
20260906100511 22 235 0.0 3.2 0.00 0.00 0.00 94 1010.8
20260906100013 22 235 0.0 1.6 0.00 0.00 0.00 94 1010.7
20260906095511 22 235 0.0 0.0 0.00 0.00 0.00 94 1010.8
20260906095012 22 235 0.0 0.0 0.00 0.00 0.00 94 1010.8
20260906094517 23 235 0.0 0.0 0.00 0.00 0.00 94 1010.6
20260906094016 23 235 0.0 0.0 0.00 0.00 0.00 94 1010.5
20260906093514 23 235 0.0 0.0 0.00 0.00 0.00 94 1010.7
20260906093026 23 235 0.0 0.0 0.00 0.00 0.00 94 1010.8
20260906092516 23 235 0.0 0.0 0.00 0.00 0.00 94 1011.0
20260906092014 23 235 0.0 0.0 0.00 0.00 0.00 94 1010.8
20260906091533 23 235 0.0 0.0 0.00 0.00 0.00 94 1010.8
20260906091014 23 235 0.0 0.0 0.00 0.00 0.00 94 1010.9
20260906090519 23 235 0.0 0.0 0.00 0.00 0.00 94 1010.9
20260906090012 23 235 0.0 0.0 0.00 0.00 0.00 94 1010.7
20260906085513 23 235 0.0 0.0 0.00 0.00 0.00 94 1010.6
20260906085013 23 235 0.0 0.0 0.00 0.00 0.00 94 1010.7
20260906084519 23 235 0.0 0.0 0.00 0.00 0.00 94 1010.7
20260906084017 23 235 0.0 0.0 0.00 0.00 0.00 94 1010.5
20260906083514 23 235 0.0 0.0 0.00 0.00 0.00 94 1010.4
20260906083033 23 235 0.0 3.2 0.00 0.00 0.00 94 1010.5
20260906082514 23 235 0.0 3.2 0.00 0.00 0.00 94 1010.6
20260906082017 23 235 0.0 3.2 0.00 0.00 0.00 94 1010.3
20260906081532 23 235 0.0 0.0 0.00 0.00 0.00 94 1010.4
20260906081016 23 235 0.0 0.0 0.00 0.00 0.00 94 1010.3
20260906080518 23 235 0.0 0.0 0.00 0.00 0.00 94 1010.3
20260906080033 23 235 0.0 0.0 0.00 0.00 0.00 94 1010.6
20260906075518 23 235 0.0 0.0 0.00 0.00 0.00 93 1010.4
20260906075010 23 235 0.0 0.0 0.00 0.00 0.00 94 1010.3
20260906074516 23 235 0.0 0.0 0.00 0.00 0.00 94 1010.3
20260906074012 23 235 0.0 0.0 0.00 0.00 0.00 94 1010.6
20260906073515 23 235 0.0 0.0 0.00 0.00 0.00 94 1010.8
20260906073023 23 235 0.0 0.0 0.00 0.00 0.00 93 1010.8
20260906072514 23 235 0.0 0.0 0.00 0.00 0.00 93 1010.4
20260906072015 23 235 0.0 0.0 0.00 0.00 0.00 93 1010.5
20260906071527 23 235 0.0 0.0 0.00 0.00 0.00 93 1010.8
20260906071018 23 235 0.0 0.0 0.00 0.00 0.00 93 1010.9
20260906070520 24 235 0.0 3.2 0.00 0.00 0.00 93 1010.9
20260906070032 24 235 0.0 3.2 0.00 0.00 0.00 93 1010.7
20260906065518 24 235 0.0 0.0 0.00 0.00 0.00 93 1010.5
20260906065014 24 235 0.0 0.0 0.00 0.00 0.00 93 1010.7
20260906064529 24 235 0.0 0.0 0.00 0.00 0.00 93 1010.7
20260906064011 24 235 0.0 0.0 0.00 0.00 0.00 93 1010.7
20260906063512 24 235 0.0 0.0 0.00 0.00 0.00 93 1010.8
20260906063021 24 235 0.0 3.2 0.00 0.00 0.00 93 1010.9
20260906062515 24 235 0.0 3.2 0.00 0.00 0.00 93 1010.9
20260906062012 24 235 0.0 3.2 0.00 0.00 0.00 93 1011.0
20260906061526 24 235 0.0 0.0 0.00 0.00 0.00 93 1011.2
20260906061016 24 235 0.0 0.0 0.00 0.00 0.00 93 1011.1
20260906060516 24 235 0.0 0.0 0.00 0.00 0.00 93 1011.1
20260906060029 24 235 0.0 0.0 0.00 0.00 0.00 93 1011.1
20260906055517 24 235 0.0 0.0 0.00 0.00 0.00 93 1011.2
20260906055017 24 235 0.0 3.2 0.00 0.00 0.00 93 1011.2
20260906054540 25 235 0.0 3.2 0.00 0.00 0.00 93 1011.2
20260906054020 25 235 0.0 0.0 0.00 0.00 0.00 93 1011.2
20260906053521 25 235 0.0 0.0 0.00 0.00 0.00 92 1011.1
20260906053016 25 235 0.0 0.0 0.00 0.00 0.00 92 1011.2
20260906052512 25 235 0.0 3.2 0.00 0.00 0.00 92 1011.2
20260906052014 25 235 0.0 3.2 0.00 0.00 0.00 92 1011.3
20260906051528 25 235 0.0 0.0 0.00 0.00 0.00 92 1011.3
20260906051004 25 235 0.0 0.0 0.00 0.00 0.00 92 1011.1
20260906050505 25 235 0.0 0.0 0.00 0.00 0.00 92 1011.2
20260906050007 25 235 0.0 0.0 0.00 0.00 0.00 92 1011.2
20260906045504 25 235 0.0 0.0 0.00 0.00 0.00 92 1011.2
20260906045008 25 235 0.0 0.0 0.00 0.00 0.00 92 1011.2
20260906044507 25 235 0.0 0.0 0.00 0.00 0.00 92 1011.3
20260906044010 25 235 0.0 0.0 0.00 0.00 0.00 92 1011.3
20260906043510 25 235 0.0 1.6 0.00 0.00 0.00 92 1011.3
20260906043023 25 235 0.0 1.6 0.00 0.00 0.00 92 1011.3
20260906042513 25 235 0.0 0.0 0.00 0.00 0.00 92 1011.2
20260906042012 25 235 0.0 0.0 0.00 0.00 0.00 91 1011.2
20260906041522 25 235 0.0 0.0 0.00 0.00 0.00 91 1011.3
20260906041016 25 235 0.0 0.0 0.00 0.00 0.00 91 1011.5
20260906040513 25 235 0.0 3.2 0.00 0.00 0.00 91 1011.3
20260906040008 25 235 0.0 3.2 0.00 0.00 0.00 91 1011.5
20260906035504 25 235 0.0 3.2 0.00 0.00 0.00 91 1011.5
20260906035004 25 235 0.0 3.2 0.00 0.00 0.00 91 1011.6
20260906034508 25 240 0.0 3.2 0.00 0.00 0.00 91 1011.7
20260906034007 26 206 0.0 3.2 0.00 0.00 0.00 91 1011.8
20260906033507 26 260 0.0 3.2 0.00 0.00 0.00 91 1011.9
20260906033023 26 279 0.0 3.2 0.00 0.00 0.00 91 1012.1
20260906032512 26 279 0.0 3.2 0.00 0.00 0.00 91 1012.1
20260906032010 26 279 0.0 3.2 0.00 0.00 0.00 91 1012.1
20260906031520 26 279 0.0 0.0 0.00 0.00 0.00 91 1012.2
20260906031015 26 279 0.0 0.0 0.00 0.00 0.00 91 1012.3
20260906030514 26 279 0.0 0.0 0.00 0.00 0.00 91 1012.3
20260906030026 26 279 0.0 0.0 0.00 0.00 0.00 91 1012.4
20260906025516 26 279 0.0 0.0 0.00 0.00 0.00 91 1012.4
20260906025004 26 279 0.0 0.0 0.00 0.00 0.00 91 1012.4
20260906024506 26 279 0.0 0.0 0.00 0.00 0.00 91 1012.4
20260906024004 26 279 0.0 3.2 0.00 0.00 0.00 91 1012.4
20260906023506 26 279 0.0 3.2 0.00 0.00 0.00 91 1012.3
20260906023012 26 245 0.0 3.2 0.00 0.00 0.00 91 1012.3
20260906022511 26 245 0.0 3.2 0.00 0.00 0.00 90 1012.3
20260906022009 26 289 0.0 3.2 0.00 0.00 0.00 90 1012.1
20260906021521 26 322 0.0 0.0 0.00 0.00 0.00 90 1012.0
20260906021017 26 230 0.0 0.0 0.00 0.00 0.00 89 1012.0
20260906020520 26 203 0.0 0.0 0.00 0.00 0.00 89 1011.8
20260906020028 26 203 0.0 0.0 0.00 0.00 0.00 89 1011.9
20260906015516 26 203 0.0 0.0 0.00 0.00 0.00 89 1011.6
20260906015016 26 272 0.0 0.0 0.00 0.00 0.00 88 1011.6
20260906014530 26 271 0.0 0.0 0.00 0.00 0.00 88 1011.6
20260906014006 26 271 0.0 0.0 0.00 0.00 0.00 88 1011.3
20260906013505 27 271 0.0 0.0 0.00 0.00 0.00 88 1011.2
20260906013007 27 271 0.0 0.0 0.00 0.00 0.00 87 1011.3
20260906012507 27 271 0.0 0.0 0.00 0.00 0.00 87 1011.2
20260906012010 27 242 0.0 0.0 0.00 0.00 0.00 87 1011.0
20260906011515 27 242 0.0 0.0 0.00 0.00 0.00 87 1010.9
20260906011010 27 242 0.0 0.0 0.00 0.00 0.00 86 1010.9
20260906010512 27 242 0.0 0.0 0.00 0.00 0.00 86 1010.9
20260906010026 27 241 0.0 0.0 0.00 0.00 0.00 85 1010.8
20260906005514 27 241 0.0 0.0 0.00 0.00 0.00 85 1010.7
20260906005014 27 241 0.0 0.0 0.00 0.00 0.00 85 1010.7
20260906004528 27 241 0.0 0.0 0.00 0.00 0.00 85 1010.6
20260906004018 28 241 0.0 0.0 0.00 0.00 0.00 84 1010.5
20260906003517 28 241 0.0 0.0 0.00 0.00 0.00 84 1010.4
20260906003009 28 241 0.0 0.0 0.00 0.00 0.00 83 1010.4
20260906002506 28 238 0.0 0.0 0.00 0.00 0.00 83 1010.4
20260906002009 28 222 0.0 0.0 0.00 0.00 0.00 82 1010.4
20260906001516 28 222 0.0 0.0 0.00 0.00 0.00 82 1010.3
20260906001008 28 222 0.0 0.0 0.00 0.00 0.00 80 1010.2
20260906000512 29 222 0.0 0.0 0.00 0.00 0.00 80 1010.2
20260906000036 29 222 0.0 0.0 0.00 0.00 0.00 80 1010.2
20260905235512 29 222 0.0 0.0 0.00 0.00 0.00 79 1010.1
20260905235016 29 222 0.0 3.2 0.00 0.00 0.00 78 1010.0
20260905234526 30 222 0.0 3.2 0.00 0.00 0.00 78 1010.1
20260905234014 30 222 0.0 3.2 0.00 0.00 0.00 77 1010.0
20260905233517 30 205 0.0 3.2 0.00 0.00 0.00 76 1009.9
20260905233029 30 245 1.6 6.4 0.00 0.03 0.00 75 1009.8
20260905232517 30 211 0.0 6.4 0.00 0.03 0.00 74 1009.9
20260905232019 30 213 0.0 8.0 0.00 0.03 0.00 74 1009.9
20260905231510 30 179 1.6 8.0 0.00 0.03 0.00 73 1010.0
20260905231008 31 267 3.2 6.4 0.00 0.03 0.00 72 1010.1
20260905230512 31 271 1.6 6.4 0.00 0.05 0.00 72 1010.2
20260905230018 31 219 1.6 6.4 0.00 0.05 0.00 72 1010.1
20260905225516 31 239 1.6 12.9 0.00 0.08 0.00 71 1010.2
20260905225012 32 229 1.6 12.9 0.00 0.08 0.00 70 1010.3
20260905224524 32 248 1.6 9.7 0.00 0.10 0.00 69 1010.3
20260905224016 32 240 3.2 9.7 0.00 0.10 0.00 66 1010.3
20260905223514 33 215 3.2 9.7 0.00 0.13 0.00 66 1010.5
20260905223031 33 231 3.2 9.7 0.00 0.15 0.00 65 1010.6
20260905222517 33 199 0.0 6.4 0.00 0.15 0.00 64 1010.5
20260905222014 33 262 0.0 9.7 0.00 0.18 0.00 64 1010.5
20260905221530 33 233 3.2 9.7 0.00 0.20 0.00 61 1010.6
20260905221016 33 232 0.0 3.2 0.00 0.20 0.00 63 1010.6
20260905220513 33 211 0.0 4.8 0.00 0.23 0.00 61 1010.6
20260905220014 33 300 0.0 11.3 0.00 0.25 0.00 61 1010.8
20260905215510 34 222 1.6 11.3 0.00 0.25 0.00 62 1010.9
20260905215014 34 265 0.0 4.8 0.00 0.28 0.00 62 1010.8
20260905214525 34 205 1.6 4.8 0.00 0.30 0.00 60 1010.8
20260905214014 34 305 1.6 3.2 0.00 0.30 0.00 60 1010.9
20260905213517 34 250 1.6 8.0 0.00 0.33 0.00 59 1011.0
20260905213031 34 229 1.6 8.0 0.00 0.36 0.00 60 1011.1
20260905212516 34 252 1.6 6.4 0.00 0.38 0.00 60 1011.0
20260905212017 34 213 1.6 6.4 0.00 0.38 0.00 62 1010.9
20260905211539 34 252 1.6 3.2 0.00 0.38 0.00 62 1010.7
20260905211016 33 263 1.6 6.4 0.00 0.38 0.00 61 1010.7
20260905210518 33 40 4.8 6.4 0.00 0.41 0.00 61 1010.7
20260905210034 33 234 1.6 8.0 0.00 0.41 0.00 63 1010.8
20260905205508 33 221 4.8 8.0 0.00 0.43 0.00 62 1010.9
20260905205012 34 259 3.2 4.8 0.00 0.46 0.00 60 1010.8
20260905204522 34 254 1.6 8.0 0.00 0.48 0.00 62 1010.8
20260905204012 34 274 1.6 8.0 0.00 0.53 0.00 61 1010.9
20260905203514 34 98 0.0 4.8 0.00 0.56 0.00 62 1011.0
20260905203005 34 267 0.0 4.8 0.00 0.64 0.00 60 1011.1
20260905202508 34 227 0.0 3.2 0.00 0.86 0.00 61 1011.0
20260905202017 33 165 1.6 4.8 0.00 1.32 0.00 63 1011.0
20260905201510 33 323 1.6 9.7 0.00 2.13 0.00 62 1011.1
20260905201018 33 346 1.6 9.7 0.00 3.07 0.00 62 1011.1
20260905200506 33 271 3.2 9.7 0.00 3.78 0.00 62 1011.2
20260905200026 33 313 3.2 9.7 0.00 4.29 0.00 62 1011.2
20260905195510 33 252 0.0 9.7 0.00 4.67 0.00 63 1011.2
20260905195012 33 155 0.0 4.8 0.00 4.67 0.00 63 1011.2
20260905194516 33 281 1.6 4.8 0.00 4.67 0.00 62 1011.3
20260905194012 33 171 1.6 9.7 0.00 4.67 0.00 64 1011.4
20260905193515 33 285 4.8 9.7 0.00 4.67 0.00 64 1011.4
20260905193024 33 252 1.6 9.7 0.00 4.67 0.00 63 1011.6
20260905192504 33 300 3.2 9.7 0.00 4.67 0.00 63 1011.5
20260905192007 33 344 3.2 8.0 0.00 4.67 0.00 64 1011.6
20260905191505 33 123 1.6 4.8 0.00 4.67 0.00 66 1011.7
20260905191007 32 250 3.2 6.4 0.00 4.67 0.00 67 1011.7
20260905190506 32 335 3.2 6.4 0.00 4.67 0.00 66 1011.8
20260905190010 32 349 1.6 4.8 0.00 4.67 0.00 71 1012.0
20260905185508 32 51 1.6 4.8 0.00 4.67 0.00 68 1012.0
20260905185007 32 309 1.6 9.7 0.00 4.67 0.00 71 1012.0
20260905184541 32 165 3.2 9.7 0.00 4.67 0.00 68 1012.1
20260905184011 32 15 3.2 8.0 0.00 4.67 0.00 68 1012.1
20260905183511 32 341 4.8 11.3 0.00 4.67 0.00 67 1012.3
20260905183038 32 195 4.8 11.3 0.00 4.67 0.00 70 1012.4
20260905182513 31 344 1.6 6.4 0.00 4.67 0.00 68 1012.4
20260905182014 31 259 1.6 6.4 0.00 4.67 0.00 71 1012.4
20260905181507 31 294 1.6 4.8 0.00 4.67 0.00 71 1012.4
20260905181006 31 348 1.6 6.4 0.00 4.67 0.00 72 1012.6
20260905180505 31 286 3.2 6.4 0.00 4.67 0.00 71 1012.6
20260905180007 31 28 1.6 4.8 0.00 4.67 0.00 73 1012.7
20260905175506 31 236 0.0 3.2 0.00 4.67 0.00 73 1012.9
20260905175009 31 259 1.6 6.4 0.00 4.67 0.00 73 1012.9
20260905174512 31 352 3.2 6.4 0.00 4.67 0.00 73 1012.9
20260905174012 31 352 1.6 6.4 0.00 4.67 0.00 72 1012.9
20260905173512 31 329 3.2 6.4 0.00 4.67 0.00 71 1013.0
20260905173018 31 74 1.6 6.4 0.00 4.67 0.00 76 1013.1
20260905172513 31 40 1.6 6.4 0.00 4.67 0.00 75 1013.2
20260905172015 31 319 1.6 8.0 0.00 4.67 0.00 74 1013.2
20260905171527 31 257 3.2 8.0 0.00 4.67 0.00 73 1013.2
20260905171016 31 329 1.6 8.0 0.00 4.67 0.00 74 1013.3
20260905170504 30 13 1.6 4.8 0.00 4.67 0.00 73 1013.5
20260905170005 30 286 1.6 8.0 0.00 4.67 0.00 78 1013.5
20260905165506 30 297 3.2 8.0 0.00 4.67 0.00 78 1013.5
20260905165008 30 275 1.6 8.0 0.00 4.67 0.00 79 1013.6
20260905164508 30 5 3.2 6.4 0.00 4.67 0.00 78 1013.6
20260905164008 30 360 3.2 6.4 0.00 4.67 0.00 77 1013.7
20260905163512 30 146 0.0 4.8 0.00 4.67 0.00 80 1013.8
20260905163020 30 26 3.2 4.8 0.00 4.67 0.00 79 1013.8
20260905162511 29 136 0.0 4.8 0.00 4.67 0.00 80 1014.0
20260905162012 28 75 1.6 8.0 0.00 4.67 0.00 84 1014.1
20260905161526 28 360 3.2 8.0 0.00 4.67 0.00 84 1014.0
20260905161016 28 311 3.2 4.8 0.00 4.67 0.00 84 1014.2
20260905160516 28 347 1.6 4.8 0.00 4.67 0.00 84 1014.3
20260905160030 28 351 1.6 8.0 0.00 4.67 0.00 85 1014.3
20260905155504 27 78 1.6 8.0 0.00 4.67 0.00 88 1014.4
20260905155008 27 348 4.8 8.0 0.00 4.67 0.00 89 1014.4
20260905154510 27 45 1.6 4.8 0.00 4.67 0.00 92 1014.4
20260905154006 26 344 0.0 9.7 0.00 4.67 0.00 94 1014.5
20260905153509 26 270 3.2 9.7 0.00 4.67 0.00 95 1014.5
20260905153018 26 352 3.2 6.4 0.00 4.67 0.00 96 1014.5
20260905152513 26 347 4.8 6.4 0.00 4.67 0.00 96 1014.5
20260905152014 26 348 0.0 6.4 0.00 4.67 0.00 96 1014.4
20260905151526 25 165 1.6 6.4 0.00 4.67 0.00 96 1014.4
20260905151017 25 207 0.0 3.2 0.00 4.67 0.00 97 1014.5
20260905150516 25 352 0.0 3.2 0.00 4.67 0.00 97 1014.5
20260905150029 25 5 0.0 3.2 0.00 4.67 0.00 97 1014.5
20260905145516 25 268 0.0 4.8 0.00 4.67 0.00 97 1014.4
20260905145017 25 19 0.0 6.4 0.00 4.67 0.00 97 1014.5
20260905144509 25 15 0.0 6.4 0.00 4.67 0.00 97 1014.4
20260905144006 25 320 0.0 6.4 0.00 4.67 0.00 97 1014.4
20260905143512 25 360 0.0 6.4 0.00 4.67 0.00 97 1014.4
20260905143015 25 342 3.2 6.4 0.00 4.67 0.00 97 1014.5
20260905142510 25 92 0.0 4.8 0.00 4.67 0.00 97 1014.6
20260905142010 25 326 3.2 4.8 0.00 4.67 0.00 96 1014.6
20260905141521 25 325 1.6 3.2 0.00 4.67 0.00 97 1014.6
20260905141012 25 315 0.0 4.8 0.00 4.67 0.00 97 1014.6
20260905140514 25 17 0.0 4.8 0.00 4.67 0.00 96 1014.6
20260905140030 25 352 0.0 3.2 0.00 4.67 0.00 97 1014.7
20260905135516 24 26 0.0 3.2 0.00 4.67 0.00 96 1014.6
20260905135020 24 5 0.0 0.0 0.00 4.67 0.00 96 1014.5
20260905134532 24 38 0.0 1.6 0.00 4.67 0.00 96 1014.6
20260905134016 24 352 0.0 3.2 0.00 4.67 0.00 96 1014.6
20260905133518 24 53 0.0 4.8 0.00 4.67 0.00 96 1014.5
20260905133015 24 15 1.6 4.8 0.00 4.67 0.00 97 1014.5
20260905132508 24 258 0.0 3.2 0.00 4.67 0.00 96 1014.4